Bennington, VT

8:25 AM EST on December 08, 2019 (GMT -0500)
Morse State

Weather History for KDDH - September, 2019

Change the Weather History Date:

Wednesday, September 25, 2019

  Actual Average Record
Temperature  
Mean Temperature 56 °F 55 °F  
Max Temperature 70 °F 67 °F 90 °F (2017)
Min Temperature 41 °F 44 °F 32 °F (2016)
Degree Days  
Heating Degree Days 9 10  
Month to date heating degree days 151 150  
Since 1 July heating degree days 186 222  
Cooling Degree Days 0 0  
Month to date cooling degree days 21 22  
Year to date cooling degree days 372 310  
Growing Degree Days 5 (Base 50)    
Moisture  
Dew Point 45 °F    
Average Humidity 73    
Maximum Humidity 96    
Minimum Humidity 49    
Precipitation  
Precipitation 0.00 in 0.13 in 1.06 in (2001)
Month to date precipitation 1.92 2.89  
Year to date precipitation 29.39 30.43  
Sea Level Pressure  
Sea Level Pressure 29.87 in    
Wind  
Wind Speed 2 mph (South)    
Max Wind Speed 10 mph    
Max Gust Speed 12 mph    
Visibility 6 miles    
Events      
T = Trace of Precipitation, MM = Missing Value Source: NWS Daily Summary

Daily Weather History Graph

Daily Weather History Graph

Search for Another Location

Airport or City:

Astronomy

Sep. 25, 2019 Rise Set
Actual Time 6:43 AM EDT 6:45 PM EDT
Civil Twilight 6:15 AM EDT 7:13 PM EDT
Nautical Twilight 5:42 AM EDT 7:46 PM EDT
Astronomical Twilight 5:08 AM EDT 8:20 PM EDT
Moon 2:25 AM EDT (9/25) 5:22 PM EDT (9/25)
Length of Visible Light 12h 58m
Length of Day
12h 02m
Waning Crescent, 14% of the Moon is Illuminated
Sep 25
Waning Crescent
Sep 28
New
Oct 5
First Quarter
Oct 13
Full
Oct 21
Last Quarter

Hourly Weather History & Observations

Time (EDT) Temp. Windchill Dew Point Humidity Pressure Visibility Wind Dir Wind Speed Gust Speed Precip Events Conditions
12:26 AM 48.0 °F - 46.0 °F 93% 29.85 in 2.0 mi SE 3.5 mph - N/A   Clear
12:34 AM 46.9 °F - 45.0 °F 93% 29.85 in 8.0 mi SSE 4.6 mph - N/A   Clear
12:54 AM 46.9 °F - 45.0 °F 93% 29.85 in 10.0 mi South 3.5 mph - N/A   Clear
1:54 AM 46.9 °F - 45.0 °F 93% 29.85 in 7.0 mi Calm Calm - N/A   Clear
2:13 AM 45.0 °F - 44.1 °F 97% 29.85 in 1.5 mi Calm Calm - N/A   Clear
2:28 AM 46.9 °F - 45.0 °F 93% 29.84 in 3.0 mi Calm Calm - N/A   Clear
2:44 AM 46.0 °F 44.8 °F 44.1 °F 93% 29.84 in 2.5 mi SSE 3.5 mph - N/A   Partly Cloudy
2:54 AM 45.0 °F 43.5 °F 43.0 °F 93% 29.85 in 3.0 mi SSW 3.5 mph - N/A   Clear
3:54 AM 44.1 °F - 42.1 °F 93% 29.87 in 6.0 mi Calm Calm - N/A   Clear
4:10 AM 44.1 °F - 42.1 °F 93% 29.87 in 3.0 mi Calm Calm - N/A   Scattered Clouds
4:25 AM 44.1 °F - 42.1 °F 93% 29.88 in 3.0 mi Calm Calm - N/A   Mostly Cloudy
4:27 AM 44.1 °F - 42.1 °F 93% 29.88 in 1.8 mi Calm Calm - N/A   Mostly Cloudy
4:54 AM 43.0 °F - 41.0 °F 93% 29.89 in 0.8 mi Calm Calm - N/A   Mist
5:09 AM 42.1 °F - 39.9 °F 92% 29.89 in 1.2 mi Calm Calm - N/A   Mostly Cloudy
5:15 AM 42.1 °F - 39.9 °F 92% 29.89 in 2.0 mi Calm Calm - N/A   Scattered Clouds
5:23 AM 43.0 °F - 39.9 °F 89% 29.89 in 4.0 mi Calm Calm - N/A   Partly Cloudy
5:54 AM 42.1 °F - 39.9 °F 92% 29.90 in 10.0 mi Calm Calm - N/A   Clear
6:34 AM 42.1 °F - 39.9 °F 92% 29.89 in 2.5 mi Calm Calm - N/A   Clear
6:41 AM 42.1 °F - 39.9 °F 92% 29.89 in 2.5 mi Calm Calm - N/A   Partly Cloudy
6:51 AM 42.8 °F - 41.0 °F 93% 29.90 in 8.0 mi Calm Calm - N/A   Partly Cloudy
6:54 AM 42.1 °F - 39.9 °F 92% 29.91 in 3.0 mi Calm Calm - N/A   Partly Cloudy
6:56 AM 42.1 °F - 39.9 °F 92% 29.90 in 1.5 mi Calm Calm - N/A   Partly Cloudy
7:07 AM 42.1 °F - 39.9 °F 92% 29.90 in 4.0 mi Calm Calm - N/A   Scattered Clouds
7:18 AM 42.1 °F - 41.0 °F 96% 29.90 in 1.8 mi Calm Calm - N/A   Partly Cloudy
7:31 AM 43.0 °F - 41.0 °F 93% 29.90 in 3.0 mi Calm Calm - N/A   Scattered Clouds
7:54 AM 46.0 °F - 44.1 °F 93% 29.92 in 10.0 mi Calm Calm - N/A   Partly Cloudy
8:54 AM 53.1 °F - 50.0 °F 89% 29.91 in 10.0 mi Calm Calm - N/A   Clear
9:54 AM 57.0 °F - 50.0 °F 77% 29.91 in 10.0 mi Variable 4.6 mph - N/A   Clear
10:54 AM 60.1 °F - 50.0 °F 69% 29.91 in 10.0 mi WNW 5.8 mph - N/A   Clear
11:54 AM 63.0 °F - 48.9 °F 60% 29.90 in 10.0 mi Variable 4.6 mph - N/A   Clear
12:54 PM 64.9 °F - 48.9 °F 56% 29.88 in 10.0 mi NNW 8.1 mph - N/A   Partly Cloudy
1:54 PM 66.9 °F - 50.0 °F 54% 29.85 in 10.0 mi Variable 4.6 mph - N/A   Scattered Clouds
2:54 PM 68.0 °F - 48.9 °F 50% 29.83 in 10.0 mi WNW 6.9 mph - N/A   Clear
3:54 PM 68.0 °F - 50.0 °F 52% 29.82 in 10.0 mi Calm Calm - N/A   Clear
4:54 PM 68.0 °F - 48.9 °F 50% 29.83 in 10.0 mi Calm Calm - N/A   Clear
5:54 PM 64.9 °F - 55.0 °F 70% 29.83 in 10.0 mi ESE 3.5 mph - N/A   Clear
6:54 PM 59.0 °F - 53.1 °F 81% 29.84 in 10.0 mi SSE 4.6 mph - N/A   Clear
7:54 PM 57.9 °F - 51.1 °F 78% 29.84 in 10.0 mi Variable 3.5 mph - N/A   Clear
8:54 PM 55.9 °F - 51.1 °F 84% 29.84 in 10.0 mi Calm Calm - N/A   Clear
9:54 PM 52.0 °F - 50.0 °F 93% 29.85 in 10.0 mi Calm Calm - N/A   Clear
10:54 PM 52.0 °F - 50.0 °F 93% 29.86 in 10.0 mi Calm Calm - N/A   Clear
11:54 PM 51.1 °F - 48.9 °F 92% 29.84 in 10.0 mi Calm Calm - N/A   Clear